�N����,����,�~����,�C��,���x,�C��,����,���ϕ���,�ő�u�ԕ���,�ő厞����,���˗�,�I�_���x,�n�����x,�ő啗���N��,DTYPE
"20/10/09","00:10",0.0,15.7,97.4,1015.9,282.7,1.0,2.5,329.3,0.00,15.3,18.5,"00:09:28",1
"20/10/09","00:20",0.0,15.7,97.4,1015.2,333.0,1.0,2.2,341.7,0.00,15.3,18.5,"00:10:48",1
"20/10/09","00:30",0.0,15.7,97.4,1014.7,246.8,0.8,1.7,223.7,0.00,15.3,18.4,"00:26:00",1
"20/10/09","00:40",0.0,15.8,97.4,1014.9,287.0,1.1,2.6,329.9,0.00,15.4,18.5,"00:32:24",1
"20/10/09","00:50",0.0,15.8,97.4,1015.6,313.5,1.0,1.6,316.5,0.00,15.4,18.6,"00:48:48",1
"20/10/09","01:00",0.0,15.9,97.4,1016.1,269.1,0.7,1.3,306.0,0.00,15.5,18.7,"00:55:28",1
"20/10/09","01:10",0.0,15.9,97.4,1015.6,284.0,1.0,1.6,243.7,0.00,15.5,18.7,"01:09:54",1
"20/10/09","01:20",0.0,16.0,97.4,1015.6,248.6,0.8,1.4,111.4,0.00,15.6,18.4,"01:10:56",1
"20/10/09","01:30",0.0,16.0,97.4,1016.1,275.4,1.0,2.4,334.7,0.00,15.6,18.7,"01:29:52",1
"20/10/09","01:40",0.0,16.0,97.4,1015.2,327.4,1.0,2.6,328.6,0.00,15.6,18.6,"01:31:12",1
"20/10/09","01:50",0.0,16.0,97.4,1015.6,223.8,0.7,1.7,191.0,0.00,15.6,18.6,"01:44:40",1
"20/10/09","02:00",0.0,16.1,97.4,1015.4,271.4,0.7,1.9,318.7,0.00,15.7,18.5,"01:59:52",1
"20/10/09","02:10",0.0,16.1,97.4,1015.2,10.1,1.0,2.5,347.2,0.00,15.7,18.7,"02:02:32",1
"20/10/09","02:20",0.0,16.0,97.4,1015.2,269.1,1.2,2.0,324.6,0.00,15.6,18.7,"02:13:52",1
"20/10/09","02:30",0.0,16.1,97.5,1015.2,280.5,1.2,2.7,246.1,0.00,15.7,18.7,"02:20:24",1
"20/10/09","02:40",0.0,16.1,97.4,1015.2,302.2,0.7,1.9,309.4,0.00,15.7,18.7,"02:38:16",1
"20/10/09","02:50",0.0,16.2,97.4,1014.7,275.8,1.1,2.1,297.4,0.00,15.8,18.5,"02:42:00",1
"20/10/09","03:00",0.0,16.3,97.4,1014.5,290.8,0.5,1.7,265.7,0.00,15.9,18.7,"02:59:36",1
"20/10/09","03:10",0.0,16.3,97.4,1014.7,270.2,1.0,1.6,283.7,0.00,15.9,18.6,"03:00:56",1
"20/10/09","03:20",0.0,16.4,97.4,1014.9,285.5,1.0,2.1,299.7,0.00,16.0,18.6,"03:11:04",1
"20/10/09","03:30",0.0,16.4,97.4,1014.7,315.3,1.0,2.2,318.6,0.00,16.0,18.6,"03:29:36",1
"20/10/09","03:40",0.0,16.4,97.4,1014.7,335.7,1.0,2.2,325.6,0.00,16.0,18.7,"03:30:08",1
"20/10/09","03:50",0.0,16.4,97.4,1014.9,285.2,1.1,1.8,309.8,0.00,16.0,18.8,"03:40:40",1
"20/10/09","04:00",0.0,16.4,97.4,1014.9,264.5,0.5,1.0,348.6,0.00,16.0,18.7,"03:58:24",1
"20/10/09","04:10",0.0,16.5,97.4,1015.2,257.3,0.6,2.6,102.5,0.00,16.1,18.6,"04:07:44",1
"20/10/09","04:20",0.0,17.1,97.2,1015.2,40.0,1.0,2.4,104.7,0.00,16.7,18.7,"04:14:16",1
"20/10/09","04:30",0.0,17.2,96.9,1014.9,21.6,0.7,2.7,55.0,0.00,16.7,18.8,"04:20:32",1
"20/10/09","04:40",0.0,17.1,96.7,1015.6,341.6,0.8,2.2,345.6,0.00,16.6,18.7,"04:38:24",1
"20/10/09","04:50",0.0,16.9,96.6,1015.9,336.8,1.6,3.2,334.4,0.00,16.4,18.7,"04:41:36",1
"20/10/09","05:00",0.0,17.0,96.3,1015.6,347.0,1.1,3.3,324.3,0.00,16.4,18.7,"04:57:12",1
"20/10/09","05:10",0.0,17.2,95.9,1015.9,107.1,1.2,3.4,120.6,0.00,16.6,18.6,"05:04:08",1
"20/10/09","05:20",0.0,17.4,95.5,1016.1,334.1,0.8,2.8,25.4,0.00,16.7,18.6,"05:12:48",1
"20/10/09","05:30",0.4,17.4,95.3,1015.9,352.4,0.7,2.9,281.8,0.00,16.7,18.6,"05:21:36",1
"20/10/09","05:40",0.6,17.3,95.2,1015.4,347.8,1.0,2.7,329.8,0.00,16.6,18.8,"05:39:04",1
"20/10/09","05:50",0.4,17.3,95.1,1015.6,357.2,1.1,2.5,332.4,0.00,16.5,18.8,"05:46:40",1
"20/10/09","06:00",0.4,17.3,94.8,1015.6,6.6,1.2,3.7,76.1,0.00,16.5,18.7,"05:59:20",1
"20/10/09","06:10",0.4,17.4,94.6,1015.4,43.2,1.1,3.2,61.6,0.00,16.6,18.6,"06:01:28",1
"20/10/09","06:20",0.2,17.3,94.4,1015.6,354.5,1.0,2.4,339.5,0.00,16.4,18.7,"06:15:20",1
"20/10/09","06:30",0.4,17.3,94.2,1015.2,353.6,0.6,2.6,132.7,0.00,16.4,18.5,"06:20:32",1
"20/10/09","06:40",0.2,17.3,94.1,1015.4,1.6,0.7,2.4,300.7,0.00,16.4,18.7,"06:37:20",1
"20/10/09","06:50",0.4,17.3,93.9,1015.4,299.6,0.8,3.4,343.9,0.00,16.3,18.6,"06:40:48",1
"20/10/09","07:00",0.2,17.3,93.8,1015.2,329.6,0.6,1.8,339.3,0.00,16.3,18.8,"06:58:08",1
"20/10/09","07:10",0.4,17.2,93.8,1015.6,287.4,0.7,1.4,307.1,0.00,16.2,18.7,"07:09:18",1
"20/10/09","07:20",0.4,17.2,93.8,1015.4,245.5,0.6,1.6,262.3,0.00,16.2,18.7,"07:17:52",1
"20/10/09","07:30",0.4,17.1,93.8,1015.6,280.1,0.8,2.0,325.6,0.00,16.1,18.6,"07:22:52",1
"20/10/09","07:40",0.4,17.1,93.9,1015.4,298.8,0.8,1.6,318.0,0.00,16.2,18.6,"07:36:28",1
"20/10/09","07:50",0.2,17.2,94.0,1015.6,342.2,0.8,2.7,123.4,0.00,16.3,18.7,"07:43:18",1
"20/10/09","08:00",0.2,17.4,94.0,1015.4,271.7,0.7,3.1,237.6,0.00,16.5,18.7,"07:58:42",1
"20/10/09","08:10",0.2,17.8,94.0,1015.6,64.1,1.1,3.4,104.8,0.00,16.9,18.7,"08:02:24",1
"20/10/09","08:20",0.4,17.8,93.9,1015.9,305.5,0.7,1.3,296.1,0.00,16.8,18.7,"08:10:40",1
"20/10/09","08:30",0.2,17.7,93.9,1015.6,31.0,0.7,2.1,163.0,0.00,16.7,18.7,"08:23:20",1
"20/10/09","08:40",0.4,17.8,93.9,1016.1,359.9,0.7,1.8,340.2,0.00,16.8,18.6,"08:33:04",1
"20/10/09","08:50",0.4,17.8,94.0,1016.1,312.3,0.6,1.6,300.7,0.00,16.9,18.4,"08:41:12",1
"20/10/09","09:00",0.2,17.8,94.0,1016.4,346.7,0.7,2.1,129.4,0.00,16.9,18.8,"08:54:56",1
"20/10/09","09:10",0.4,17.8,94.0,1016.1,111.6,1.0,2.4,63.3,0.00,16.9,18.7,"09:01:44",1
"20/10/09","09:20",0.6,17.9,93.9,1015.9,299.2,0.6,1.7,350.0,0.00,16.9,18.8,"09:19:52",1
"20/10/09","09:30",0.6,17.9,94.0,1015.9,85.9,1.0,2.5,94.3,0.00,17.0,18.8,"09:29:36",1
"20/10/09","09:40",0.4,18.0,94.0,1015.9,88.0,0.7,2.2,97.0,0.00,17.1,18.8,"09:30:08",1
"20/10/09","09:50",0.4,18.0,94.0,1015.9,115.5,1.0,2.7,135.9,0.00,17.1,18.7,"09:40:56",1
"20/10/09","10:00",0.6,17.9,93.9,1015.9,99.8,1.5,3.6,98.2,0.00,16.9,18.5,"09:50:32",1
"20/10/09","10:10",0.6,18.0,93.9,1015.9,85.5,0.8,2.2,113.8,0.00,17.0,18.6,"10:03:04",1
"20/10/09","10:20",0.4,18.0,94.0,1015.9,73.3,0.6,1.9,84.1,0.00,17.1,18.7,"10:17:44",1
"20/10/09","10:30",0.2,18.0,93.9,1015.9,5.1,0.5,1.7,97.2,0.00,17.0,18.8,"10:24:56",1
"20/10/09","10:40",0.2,18.0,94.0,1015.4,105.1,0.8,2.8,106.0,0.01,17.1,18.8,"10:39:16",1
"20/10/09","10:50",0.4,18.0,94.0,1015.6,110.0,1.0,2.9,139.8,0.01,17.1,18.8,"10:47:36",1
"20/10/09","11:00",0.6,18.0,93.9,1015.4,114.1,1.1,3.4,39.3,0.01,17.0,18.7,"10:55:36",1
"20/10/09","11:10",0.6,18.0,93.9,1015.2,130.1,0.7,2.8,122.6,0.01,17.0,18.7,"11:03:04",1
"20/10/09","11:20",0.6,18.0,94.0,1015.4,131.7,0.8,1.8,120.7,0.01,17.1,18.8,"11:17:14",1
"20/10/09","11:30",0.8,18.0,94.0,1015.2,97.1,0.6,1.4,91.9,0.01,17.1,18.8,"11:29:44",1
"20/10/09","11:40",0.4,18.1,94.1,1015.2,74.7,0.7,1.7,89.0,0.02,17.2,18.8,"11:31:12",1
"20/10/09","11:50",0.8,18.1,94.2,1014.7,109.6,0.8,2.4,119.3,0.02,17.2,18.8,"11:46:00",1
"20/10/09","12:00",0.6,18.0,94.2,1014.5,127.2,0.7,1.9,149.4,0.01,17.1,18.7,"11:50:08",1
"20/10/09","12:10",0.2,18.0,94.3,1014.5,39.8,0.7,1.9,358.0,0.01,17.1,18.9,"12:04:24",1
"20/10/09","12:20",0.4,18.0,94.3,1014.5,110.6,0.7,1.8,76.5,0.02,17.1,18.8,"12:16:24",1
"20/10/09","12:30",0.2,18.1,94.3,1014.5,119.7,0.7,2.0,117.7,0.01,17.2,18.7,"12:24:32",1
"20/10/09","12:40",0.4,18.1,94.3,1014.5,76.6,1.0,2.6,46.9,0.01,17.2,18.8,"12:33:20",1
"20/10/09","12:50",0.4,18.2,94.3,1014.5,95.5,1.0,2.1,94.9,0.03,17.3,19.0,"12:42:40",1
"20/10/09","13:00",0.2,18.2,94.4,1014.2,70.6,0.7,2.5,99.6,0.02,17.3,18.8,"12:52:08",1
"20/10/09","13:10",0.4,18.2,94.4,1014.5,33.1,0.7,1.7,57.4,0.02,17.3,18.7,"13:01:52",1
"20/10/09","13:20",0.6,18.3,94.4,1013.8,45.1,0.7,2.9,55.9,0.02,17.4,18.9,"13:10:24",1
"20/10/09","13:30",0.4,18.3,94.5,1013.3,3.3,0.6,1.3,341.5,0.03,17.4,18.9,"13:24:48",1
"20/10/09","13:40",0.4,18.3,94.5,1013.8,351.1,0.3,1.3,92.6,0.02,17.4,19.2,"13:33:36",1
"20/10/09","13:50",0.4,18.2,94.6,1013.8,55.1,0.6,1.3,121.5,0.02,17.4,18.9,"13:46:32",1
"20/10/09","14:00",0.4,18.4,94.6,1013.5,325.5,0.5,1.1,333.8,0.03,17.6,19.1,"13:53:44",1
"20/10/09","14:10",0.4,18.4,94.6,1013.5,51.5,0.6,2.6,69.1,0.03,17.6,19.1,"14:02:40",1
"20/10/09","14:20",0.2,18.4,94.6,1014.0,98.3,1.0,2.7,111.5,0.02,17.6,19.1,"14:13:04",1
"20/10/09","14:30",0.4,18.4,94.7,1013.5,70.4,0.7,1.9,12.3,0.02,17.6,19.2,"14:27:20",1
"20/10/09","14:40",0.2,18.5,94.7,1013.8,22.5,0.5,1.7,36.6,0.01,17.7,19.0,"14:31:36",1
"20/10/09","14:50",0.4,18.5,94.7,1014.0,167.9,0.3,1.2,121.6,0.00,17.7,19.1,"14:41:12",1
"20/10/09","15:00",0.2,18.5,94.8,1013.5,48.2,0.5,1.2,347.6,0.01,17.7,19.2,"14:57:52",1
"20/10/09","15:10",0.6,18.4,94.8,1013.5,81.7,0.5,1.2,100.0,0.01,17.6,19.2,"15:02:08",1
"20/10/09","15:20",0.4,18.4,94.9,1013.3,19.8,0.7,1.8,11.3,0.01,17.6,19.2,"15:14:40",1
"20/10/09","15:30",0.2,18.5,94.9,1013.0,48.0,0.7,2.2,339.1,0.01,17.7,19.3,"15:23:44",1
"20/10/09","15:40",0.2,18.5,94.9,1013.5,100.1,0.7,1.8,101.0,0.00,17.7,19.3,"15:38:40",1
"20/10/09","15:50",0.4,18.5,94.9,1013.0,99.8,0.7,2.4,101.3,0.00,17.7,19.1,"15:43:44",1
"20/10/09","16:00",0.4,18.5,94.9,1013.0,268.6,0.5,1.1,113.2,0.00,17.7,19.4,"15:50:08",1
"20/10/09","16:10",0.4,18.5,95.0,1012.8,44.3,0.3,1.1,88.2,0.00,17.7,19.1,"16:05:36",1
"20/10/09","16:20",0.4,18.5,95.0,1013.0,12.3,0.3,1.0,345.6,0.00,17.7,19.1,"16:14:48",1
"20/10/09","16:30",0.2,18.5,95.1,1012.8,53.9,0.3,1.0,121.9,0.00,17.7,19.3,"16:20:16",1
"20/10/09","16:40",0.2,18.4,95.1,1012.3,15.7,0.3,1.3,91.9,0.00,17.6,19.2,"16:39:06",1
"20/10/09","16:50",0.2,18.5,95.1,1012.6,171.9,0.5,1.4,136.7,0.00,17.7,19.3,"16:40:24",1
"20/10/09","17:00",0.0,18.4,95.1,1012.3,201.8,0.3,1.0,95.6,0.00,17.6,19.2,"16:57:52",1
"20/10/09","17:10",0.2,18.4,95.2,1013.0,292.7,0.8,2.1,310.3,0.00,17.7,19.3,"17:09:12",1
"20/10/09","17:20",0.2,18.3,95.2,1013.3,288.6,0.7,2.0,310.4,0.00,17.6,19.2,"17:10:56",1
"20/10/09","17:30",0.4,18.3,95.3,1013.8,319.8,1.0,1.6,326.0,0.00,17.6,19.3,"17:24:00",1
"20/10/09","17:40",0.0,18.1,95.3,1013.5,174.6,0.2,0.8,132.0,0.00,17.4,19.4,"17:32:40",1
"20/10/09","17:50",0.0,18.1,95.4,1013.3,321.5,0.6,1.4,331.6,0.00,17.4,19.1,"17:43:20",1
"20/10/09","18:00",0.4,18.1,95.4,1013.3,242.5,0.6,1.4,229.5,0.00,17.4,19.4,"17:51:44",1
"20/10/09","18:10",0.0,18.0,95.4,1013.0,290.9,0.6,0.9,267.7,0.00,17.3,19.2,"18:00:56",1
"20/10/09","18:20",0.2,18.0,95.6,1013.0,282.3,0.5,0.8,328.4,0.00,17.3,19.2,"18:11:36",1
"20/10/09","18:30",0.2,18.0,95.6,1013.0,287.9,0.3,0.8,98.0,0.00,17.3,19.3,"18:22:16",1
"20/10/09","18:40",0.0,18.1,95.6,1013.0,298.6,0.5,1.3,114.5,0.00,17.4,19.1,"18:37:12",1
"20/10/09","18:50",0.2,18.3,95.6,1012.6,91.0,0.7,1.6,87.0,0.00,17.6,19.3,"18:40:08",1
"20/10/09","19:00",0.0,18.4,95.7,1012.8,72.0,0.7,2.1,107.9,0.00,17.7,19.2,"18:58:00",1
"20/10/09","19:10",0.0,18.4,95.6,1012.8,94.7,0.6,1.8,106.8,0.00,17.7,19.0,"19:04:40",1
"20/10/09","19:20",0.0,18.4,95.6,1013.0,84.9,0.8,2.0,101.6,0.00,17.7,19.1,"19:16:24",1
"20/10/09","19:30",0.0,18.5,95.6,1013.0,86.1,0.8,2.7,90.6,0.00,17.8,19.2,"19:23:36",1
"20/10/09","19:40",0.0,18.5,95.5,1013.3,85.0,0.6,1.6,111.2,0.00,17.8,19.2,"19:31:12",1
"20/10/09","19:50",0.2,18.4,95.5,1013.5,21.1,0.7,2.0,55.3,0.00,17.7,19.1,"19:40:24",1
"20/10/09","20:00",0.0,18.5,95.4,1013.3,27.6,0.7,2.0,66.2,0.00,17.8,19.0,"19:56:40",1
"20/10/09","20:10",0.0,18.5,95.4,1013.3,37.8,0.7,1.6,105.1,0.00,17.8,19.3,"20:02:32",1
"20/10/09","20:20",0.0,18.4,95.3,1012.6,51.5,0.3,1.0,101.7,0.00,17.7,19.2,"20:10:16",1
"20/10/09","20:30",0.0,18.4,95.4,1013.3,44.7,0.7,2.8,129.9,0.00,17.7,19.3,"20:27:44",1
"20/10/09","20:40",0.0,18.5,95.3,1013.0,56.6,0.8,2.1,8.2,0.00,17.8,19.2,"20:31:52",1
"20/10/09","20:50",0.2,18.5,95.2,1012.6,28.4,1.2,3.1,120.3,0.00,17.8,19.2,"20:44:32",1
"20/10/09","21:00",0.2,18.5,95.1,1012.8,27.2,0.7,1.9,352.3,0.00,17.7,19.2,"20:51:12",1
"20/10/09","21:10",0.2,18.4,95.1,1013.0,346.5,0.5,1.1,63.9,0.00,17.6,19.1,"21:02:48",1
"20/10/09","21:20",0.2,18.4,95.1,1012.3,34.3,0.6,1.6,82.8,0.00,17.6,19.2,"21:12:40",1
"20/10/09","21:30",0.0,18.4,95.0,1012.6,10.0,0.8,2.0,344.6,0.00,17.6,19.0,"21:28:24",1
"20/10/09","21:40",0.2,18.4,95.0,1012.6,4.8,0.6,2.1,112.3,0.00,17.6,19.2,"21:31:28",1
"20/10/09","21:50",0.0,18.5,95.0,1012.6,27.5,0.6,1.4,341.2,0.00,17.7,19.2,"21:40:16",1
"20/10/09","22:00",0.2,18.5,94.9,1012.3,94.5,1.3,3.7,101.0,0.00,17.7,19.0,"21:58:16",1
"20/10/09","22:10",0.2,18.5,94.8,1012.3,78.1,1.3,5.0,131.1,0.00,17.7,19.1,"22:06:40",1
"20/10/09","22:20",0.0,18.6,94.6,1012.1,61.3,1.0,2.6,115.2,0.00,17.8,19.2,"22:11:12",1
"20/10/09","22:30",0.2,18.5,94.6,1012.1,354.5,0.7,1.8,3.9,0.00,17.7,19.2,"22:23:12",1
"20/10/09","22:40",0.0,18.5,94.5,1011.9,31.8,1.1,2.9,346.8,0.00,17.6,19.2,"22:34:32",1
"20/10/09","22:50",0.0,18.6,94.4,1012.3,337.8,0.6,2.0,121.7,0.00,17.7,19.2,"22:40:40",1
"20/10/09","23:00",0.0,18.5,94.4,1011.9,299.2,0.5,1.1,323.1,0.00,17.6,19.1,"22:53:12",1
"20/10/09","23:10",0.2,18.4,94.4,1011.9,299.9,0.5,1.1,237.1,0.00,17.5,18.9,"23:08:56",1
"20/10/09","23:20",0.2,18.3,94.4,1011.9,12.3,0.6,1.7,306.9,0.00,17.4,19.1,"23:11:52",1
"20/10/09","23:30",0.2,18.5,94.4,1011.6,30.2,0.8,2.0,2.7,0.00,17.6,19.2,"23:24:08",1
"20/10/09","23:40",0.4,18.5,94.3,1011.9,45.2,0.6,2.8,34.3,0.00,17.6,19.0,"23:31:28",1
"20/10/09","23:50",0.2,18.4,94.3,1011.6,274.3,0.5,1.3,309.4,0.00,17.5,19.2,"23:42:32",1
"20/10/09","24:00",0.2,18.3,94.4,1011.6,303.2,0.6,1.1,298.8,0.00,17.4,19.4,"23:51:36",1
